Latest Weather Observations for Moorabbin Airport

IDV60901

Issued at 4:55 am EST Tuesday 2 September 2014 (issued every 10 minutes, with the page automatically refreshed every 10 minutes)

About weather observations | Map of Melbourne area stations | Latest observations for Melbourne area | Other Formats
Station Details ID: 086077 Name: MOORABBIN AIRPORT Lat: -37.98 Lon: 145.10 Height: 12.1 m
Data from the previous 72 hours. | See also: Recent months at Moorabbin Airport
Date/Time
EST
Tmp

°C
App
Tmp
°C
Dew
Point
°C
Rel
Hum
%
Delta-T

°C
Wind Press
QNH
hPa
Press
MSL
hPa
Rain
since
9 am
mm
Dir
 
Spd
km/h
Gust
km/h
Spd
kts
Gust
kts
02/04:30am 9.3 6.8 8.2 93 0.5 W 11 15 6 8 1014.2 1014.2 11.8
02/04:24am 9.2 7.0 8.0 92 0.6 W 9 13 5 7 1014.2 1014.2 11.8
02/04:00am 9.7 8.0 8.5 92 0.6 SW 7 11 4 6 1014.1 1014.1 11.8
02/03:57am 9.7 7.7 8.5 92 0.6 WSW 9 13 5 7 1014.0 1014.0 11.8
02/03:30am 9.7 6.1 8.3 91 0.7 SW 17 26 9 14 1014.0 1014.0 11.8
02/03:00am 9.6 6.7 8.2 91 0.7 W 13 20 7 11 1013.6 1013.6 11.4
02/02:30am 9.9 7.3 7.8 87 1.0 W 11 17 6 9 1013.4 1013.4 11.4
02/02:00am 9.7 7.5 8.0 89 0.8 WSW 9 13 5 7 1013.3 1013.3 11.4
02/01:30am 9.2 6.4 6.8 85 1.1 SW 11 15 6 8 1013.4 1013.4 11.4
02/01:00am 10.2 6.7 7.4 83 1.3 WSW 15 24 8 13 1013.3 1013.3 11.2
02/12:30am 10.3 6.9 9.1 92 0.6 W 17 22 9 12 1013.0 1013.0 11.2
02/12:00am 10.2 7.5 9.1 93 0.5 W 13 17 7 9 1012.9 1012.9 11.2
 
Date/Time
EST
Tmp

°C
App
Tmp
°C
Dew
Point
°C
Rel
Hum
%
Delta-T

°C
Wind Press
QNH
hPa
Press
MSL
hPa
Rain
since
9 am
mm
Dir
 
Spd
km/h
Gust
km/h
Spd
kts
Gust
kts
01/11:30pm 10.4 8.2 9.3 93 0.5 W 11 15 6 8 1012.7 1012.7 11.2
01/11:00pm 10.3 8.8 9.2 93 0.5 WNW 7 13 4 7 1012.5 1012.5 11.2
01/10:30pm 10.2 8.6 8.8 91 0.7 WNW 7 11 4 6 1012.4 1012.4 11.2
01/10:00pm 10.0 8.0 8.6 91 0.7 NW 9 15 5 8 1012.5 1012.5 11.2
01/09:30pm 10.3 7.5 8.6 89 0.8 NW 13 19 7 10 1012.4 1012.4 11.2
01/09:00pm 10.5 8.3 9.4 93 0.5 WNW 11 17 6 9 1011.9 1011.9 11.2
01/08:30pm 11.0 9.0 10.1 94 0.5 W 11 15 6 8 1011.7 1011.7 11.2
01/08:00pm 11.1 10.0 10.5 96 0.3 WNW 7 11 4 6 1011.5 1011.5 11.2
01/07:30pm 11.3 9.8 10.5 95 0.4 W 9 11 5 6 1011.0 1011.0 11.2
01/07:00pm 11.3 10.3 11.1 99 0.1 WSW 7 9 4 5 1010.8 1010.8 10.6
01/06:30pm 11.0 9.9 10.8 99 0.1 WNW 7 9 4 5 1010.6 1010.6 10.6
01/06:07pm 10.9 9.8 10.7 99 0.1 WNW 7 9 4 5 1010.2 1010.2 10.6
01/06:00pm 10.9 9.8 10.7 99 0.1 W 7 11 4 6 1010.1 1010.1 10.4
01/05:39pm 10.9 9.4 10.6 98 0.2 WNW 9 13 5 7 1009.9 1009.9 9.4
01/05:30pm 11.0 9.5 10.7 98 0.2 WNW 9 13 5 7 1009.8 1009.8 8.8
01/05:19pm 11.1 9.6 10.6 97 0.3 WNW 9 13 5 7 1009.7 1009.7 8.6
01/05:00pm 11.2 9.3 10.6 96 0.3 WSW 11 17 6 9 1009.4 1009.4 8.4
01/04:31pm 11.6 10.4 10.3 92 0.7 SW 7 9 4 5 1009.0 1009.0 5.8
01/04:30pm 11.6 10.4 10.3 92 0.7 SW 7 9 4 5 1009.0 1009.0 5.6
01/04:19pm 11.6 10.4 10.3 92 0.7 WNW 7 9 4 5 1008.9 1008.9 5.4
01/04:00pm 11.6 10.0 10.3 92 0.7 WNW 9 13 5 7 1008.9 1008.9 5.2
01/03:51pm 11.6 10.0 10.3 92 0.7 WNW 9 15 5 8 1008.9 1008.9 5.0
01/03:30pm 11.9 10.3 10.3 90 0.8 WNW 9 11 5 6 1008.6 1008.6 4.4
01/03:00pm 11.9 10.3 10.3 90 0.8 WNW 9 15 5 8 1008.6 1008.6 4.2
01/02:30pm 12.4 10.2 10.8 90 0.8 WNW 13 22 7 12 1008.4 1008.4 4.0
01/02:00pm 12.4 10.2 10.8 90 0.8 N 13 17 7 9 1008.0 1008.0 3.6
01/01:30pm 12.4 9.8 10.6 89 0.9 N 15 20 8 11 1008.4 1008.4 3.2
01/01:00pm 12.5 10.1 10.0 85 1.3 NNW 13 17 7 9 1008.7 1008.7 3.0
01/12:30pm 12.7 9.5 9.9 83 1.4 N 17 24 9 13 1008.5 1008.5 2.4
01/12:00pm 12.2 9.0 9.9 86 1.2 N 17 22 9 12 1008.8 1008.8 2.0
01/11:42am 11.9 8.9 9.1 83 1.4 NNW 15 22 8 12 1008.7 1008.7 2.0
01/11:30am 11.8 7.9 8.6 81 1.6 NNW 19 24 10 13 1008.9 1008.9 1.8
01/11:21am 12.4 8.6 7.7 73 2.3 WNW 17 26 9 14 1009.1 1009.1 1.0
01/11:00am 14.3 9.7 6.4 59 3.8 NW 20 32 11 17 1008.7 1008.7 0.0
01/10:30am 15.5 10.3 5.4 51 4.8 NNW 22 28 12 15 1008.8 1008.8 0.0
01/10:00am 15.5 10.2 5.1 50 4.9 NNW 22 32 12 17 1008.9 1008.9 0.0
01/09:30am 15.3 9.2 4.9 50 4.9 NNW 26 35 14 19 1009.1 1009.1 0.0
01/09:00am 15.6 9.0 4.3 47 5.3 NNW 28 39 15 21 1008.2 1008.2 0.0
01/08:30am 16.0 9.1 4.4 46 5.4 NNW 30 43 16 23 1008.4 1008.4 0.0
01/08:02am 16.5 9.8 3.9 43 5.9 NNW 28 46 15 25 1008.0 1008.0 0.0
01/08:00am 16.7 9.7 4.1 43 5.9 NNW 30 46 16 25 1008.0 1008.0 0.0
01/07:40am 16.6 9.2 4.0 43 5.9 N 32 50 17 27 1007.5 1007.5 0.0
01/07:30am 16.6 8.3 4.0 43 5.9 N 37 50 20 27 1007.3 1007.3 0.0
01/07:00am 16.3 9.7 4.4 45 5.6 N 28 41 15 22 1007.7 1007.7 0.0
01/06:30am 16.2 10.4 4.6 46 5.5 N 24 35 13 19 1008.1 1008.1 0.0
01/06:00am 16.5 10.3 4.5 45 5.7 N 26 35 14 19 1007.8 1007.8 0.0
01/05:30am 16.9 11.5 4.3 43 5.9 N 22 32 12 17 1008.0 1008.0 0.0
01/05:00am 17.0 10.5 4.7 44 5.8 N 28 43 15 23 1007.5 1007.5 0.0
01/04:30am 16.8 9.5 4.5 44 5.8 N 32 41 17 22 1007.0 1007.0 0.0
01/04:00am 16.9 8.7 4.9 45 5.7 N 37 52 20 28 1007.6 1007.6 0.0
01/03:30am 17.2 9.0 4.9 44 5.9 N 37 50 20 27 1008.1 1008.1 0.0
01/03:06am 17.6 9.7 4.5 42 6.2 N 35 54 19 29 1008.3 1008.3 0.0
01/03:00am 17.6 9.5 5.2 44 6.0 N 37 52 20 28 1008.5 1008.5 0.0
01/02:50am 17.8 9.7 5.1 43 6.1 N 37 56 20 30 1008.3 1008.3 0.0
01/02:30am 17.2 10.1 5.5 46 5.6 N 32 43 17 23 1008.6 1008.6 0.0
01/02:00am 17.4 9.8 5.7 46 5.7 N 35 44 19 24 1008.9 1008.9 0.0
01/01:30am 17.7 10.8 6.3 47 5.6 N 32 41 17 22 1009.3 1009.3 0.0
01/01:00am 17.4 11.7 6.8 49 5.3 N 26 33 14 18 1009.8 1009.8 0.0
01/12:30am 17.9 11.0 6.4 47 5.7 N 32 43 17 23 1009.8 1009.8 0.0
01/12:00am 17.2 11.1 6.7 50 5.2 N 28 41 15 22 1009.7 1009.7 0.0
 
Date/Time
EST
Tmp

°C
App
Tmp
°C
Dew
Point
°C
Rel
Hum
%
Delta-T

°C
Wind Press
QNH
hPa
Press
MSL
hPa
Rain
since
9 am
mm
Dir
 
Spd
km/h
Gust
km/h
Spd
kts
Gust
kts
31/11:30pm 17.5 10.7 6.7 49 5.4 N 32 43 17 23 1009.5 1009.5 0.0
31/11:00pm 17.4 10.0 6.9 50 5.2 N 35 44 19 24 1010.0 1010.0 0.0
31/10:30pm 17.2 9.9 7.3 52 5.0 NNE 35 54 19 29 1010.2 1010.2 0.0
31/10:00pm 17.0 10.7 7.4 53 4.8 N 30 39 16 21 1011.2 1011.2 0.0
31/09:30pm 16.8 11.6 7.2 53 4.8 N 24 33 13 18 1012.2 1012.2 0.0
31/09:00pm 17.0 12.2 7.4 53 4.8 NNE 22 32 12 17 1012.3 1012.3 0.0
31/08:30pm 16.9 12.1 7.5 54 4.7 NNE 22 28 12 15 1012.6 1012.6 0.0
31/08:00pm 16.9 12.6 7.8 55 4.6 NNE 20 28 11 15 1012.9 1012.9 0.0
31/07:30pm 17.1 12.8 7.7 54 4.7 NNE 20 28 11 15 1013.0 1013.0 0.0
31/07:00pm 17.4 11.9 7.7 53 4.9 N 26 32 14 17 1012.9 1012.9 0.0
31/06:30pm 17.5 12.1 7.8 53 4.9 N 26 33 14 18 1013.3 1013.3 0.0
31/06:00pm 17.7 12.2 7.4 51 5.2 N 26 35 14 19 1013.5 1013.5 0.0
31/05:30pm 18.5 12.9 7.0 47 5.8 N 26 37 14 20 1013.4 1013.4 0.0
31/05:00pm 18.9 12.2 7.4 47 5.8 N 32 41 17 22 1013.3 1013.3 0.0
31/04:30pm 19.5 13.2 7.3 45 6.2 N 30 39 16 21 1013.1 1013.1 0.0
31/04:19pm 19.7 13.7 7.1 44 6.4 N 28 46 15 25 1013.1 1013.1 0.0
31/04:00pm 20.1 13.0 6.4 41 6.9 N 33 44 18 24 1013.3 1013.3 0.0
31/03:30pm 19.8 12.8 6.9 43 6.5 N 33 44 18 24 1013.5 1013.5 0.0
31/03:00pm 20.4 14.2 7.7 44 6.5 N 30 37 16 20 1014.2 1014.2 0.0
31/02:30pm 20.1 13.5 7.8 45 6.3 N 32 43 17 23 1014.5 1014.5 0.0
31/02:00pm 20.8 14.0 7.1 41 7.0 N 32 44 17 24 1014.7 1014.7 0.0
31/01:30pm 20.0 13.2 7.1 43 6.6 N 32 44 17 24 1014.9 1014.9 0.0
31/01:00pm 20.6 13.4 7.6 43 6.7 N 35 50 19 27 1015.4 1015.4 0.0
31/12:30pm 20.4 13.1 7.1 42 6.8 N 35 48 19 26 1015.7 1015.7 0.0
31/12:00pm 20.1 12.8 7.1 43 6.6 N 35 48 19 26 1016.4 1016.4 0.0
31/11:30am 19.7 12.9 6.8 43 6.5 N 32 48 17 26 1016.8 1016.8 0.0
31/11:00am 19.1 12.2 6.6 44 6.2 N 32 39 17 21 1017.0 1017.0 0.0
31/10:30am 18.2 11.2 6.7 47 5.7 N 33 43 18 23 1017.4 1017.4 0.0
31/10:00am 17.5 11.3 7.8 53 4.9 N 30 43 16 23 1017.8 1017.8 0.0
31/09:30am 16.4 9.7 7.3 55 4.5 N 32 43 17 23 1018.2 1018.2 0.0
31/09:00am 15.7 10.0 8.2 61 3.8 N 28 35 15 19 1018.5 1018.5 0.0
31/08:30am 14.7 9.7 8.2 65 3.3 N 24 30 13 16 1018.6 1018.6 0.0
31/08:00am 13.4 9.5 8.5 72 2.4 N 19 28 10 15 1018.8 1018.8 0.0
31/07:30am 11.7 8.0 7.8 77 1.9 N 17 19 9 10 1019.1 1019.1 0.0
31/07:00am 10.4 7.3 7.1 80 1.6 N 13 15 7 8 1019.0 1019.0 0.0
31/06:30am 9.7 6.1 6.6 81 1.4 N 15 17 8 9 1018.7 1018.7 0.0
31/06:00am 10.4 6.9 7.3 81 1.5 N 15 17 8 9 1018.6 1018.6 0.0
31/05:30am 10.6 7.1 7.3 80 1.6 N 15 19 8 10 1018.3 1018.3 0.0
31/05:00am 9.5 6.4 7.1 85 1.1 N 13 17 7 9 1018.2 1018.2 0.0
31/04:30am 9.6 6.8 6.9 83 1.3 N 11 11 6 6 1018.4 1018.4 0.0
31/04:00am 10.1 7.4 7.2 82 1.4 N 11 13 6 7 1018.5 1018.5 0.0
31/03:30am 10.5 8.1 7.0 79 1.7 N 9 11 5 6 1018.7 1018.7 0.0
31/03:00am 11.0 8.8 7.7 80 1.6 N 9 11 5 6 1018.7 1018.7 0.0
31/02:30am 10.9 8.6 7.6 80 1.6 N 9 11 5 6 1019.0 1019.0 0.0
31/02:00am 11.0 8.7 7.5 79 1.7 N 9 9 5 5 1019.3 1019.3 0.0
31/01:30am 11.0 8.7 7.5 79 1.7 N 9 9 5 5 1019.6 1019.6 0.0
31/01:00am 11.9 9.3 7.8 76 2.0 N 11 13 6 7 1019.9 1019.9 0.0
31/12:30am 12.1 9.6 8.0 76 2.0 N 11 15 6 8 1020.0 1020.0 0.0
31/12:00am 12.1 8.9 8.6 79 1.7 N 15 17 8 9 1020.0 1020.0 0.0
 
Date/Time
EST
Tmp

°C
App
Tmp
°C
Dew
Point
°C
Rel
Hum
%
Delta-T

°C
Wind Press
QNH
hPa
Press
MSL
hPa
Rain
since
9 am
mm
Dir
 
Spd
km/h
Gust
km/h
Spd
kts
Gust
kts
30/11:30pm 10.3 8.0 7.4 82 1.4 N 9 11 5 6 1020.5 1020.6 0.0
30/11:00pm 10.5 8.8 7.4 81 1.5 N 6 7 3 4 1020.8 1020.9 0.0
30/10:30pm 10.6 8.7 6.7 77 1.8 NE 6 7 3 4 1021.3 1021.4 0.0
30/10:00pm 12.9 11.1 7.8 71 2.5 N 7 11 4 6 1021.6 1021.7 0.0
30/09:30pm 13.4 11.2 8.0 70 2.7 N 9 11 5 6 1021.6 1021.7 0.0
30/09:00pm 12.9 10.4 8.2 73 2.3 N 11 11 6 6 1021.6 1021.7 0.0
30/08:30pm 12.3 9.9 7.0 70 2.5 NNE 9 11 5 6 1021.5 1021.6 0.0
30/08:00pm 14.0 11.9 8.2 68 2.9 N 9 9 5 5 1021.3 1021.4 0.0
30/07:30pm 15.4 13.3 8.2 62 3.6 N 9 11 5 6 1021.2 1021.3 0.0
30/07:00pm 14.9 12.0 8.2 64 3.4 N 13 13 7 7 1021.1 1021.2 0.0
30/06:30pm 15.7 13.2 8.4 62 3.7 N 11 13 6 7 1021.3 1021.4 0.0
30/06:00pm 16.9 14.1 8.6 58 4.2 N 13 17 7 9 1021.4 1021.5 0.0
30/05:30pm 17.9 14.3 8.5 54 4.8 N 17 24 9 13 1021.2 1021.3 0.0
30/05:00pm 18.9 15.0 8.8 52 5.2 N 19 26 10 14 1021.3 1021.4 0.0
30/04:30pm 19.5 15.6 8.8 50 5.6 N 19 28 10 15 1021.2 1021.3 0.0
30/04:00pm 19.9 15.2 7.9 46 6.2 N 22 32 12 17 1021.2 1021.3 0.0
30/03:30pm 20.1 15.7 7.5 44 6.5 N 20 30 11 16 1021.2 1021.3 0.0
30/03:00pm 20.2 15.2 7.9 45 6.3 N 24 32 13 17 1021.4 1021.5 0.0
30/02:30pm 20.3 15.9 8.9 48 6.0 N 22 30 12 16 1021.6 1021.7 0.0
30/02:00pm 20.2 15.7 8.5 47 6.1 N 22 32 12 17 1022.0 1022.1 0.0
30/01:30pm 20.0 15.9 8.7 48 5.9 N 20 28 11 15 1022.3 1022.4 0.0
30/01:00pm 19.7 15.6 7.8 46 6.1 NNW 19 30 10 16 1022.8 1022.9 0.0
30/12:30pm 18.6 16.4 9.4 55 4.8 N 11 20 6 11 1023.4 1023.5 0.0
30/12:00pm 17.8 14.0 9.2 57 4.5 N 19 26 10 14 1023.9 1024.0 0.0
30/11:30am 17.4 16.2 9.6 60 4.1 NNE 6 9 3 5 1024.5 1024.6 0.0
30/11:00am 15.5 14.7 9.8 69 3.0 NW 4 7 2 4 1025.0 1025.1 0.0
30/10:30am 14.8 14.1 10.2 74 2.4 NNE 4 7 2 4 1025.5 1025.6 0.0
30/10:00am 12.9 11.5 9.7 81 1.6 N 7 11 4 6 1026.0 1026.1 0.0
30/09:44am 12.5 11.5 10.2 86 1.2 NNW 6 11 3 6 1026.1 1026.2 0.0
30/09:30am 12.1 10.9 10.2 88 1.0 NW 7 11 4 6 1026.2 1026.3 0.0
30/09:13am 11.4 9.7 9.8 90 0.8 NNW 9 13 5 7 1026.3 1026.4 0.0
30/09:03am 11.2 9.5 9.8 91 0.7 N 9 15 5 8 1026.3 1026.4 0.0
30/09:00am 10.9 9.1 9.3 90 0.8 N 9 15 5 8 1026.4 1026.5 0.0
30/08:30am 10.9 8.7 9.5 91 0.7 N 11 13 6 7 1026.4 1026.5 0.0
30/08:00am 10.9 9.1 9.5 91 0.7 NNW 9 13 5 7 1026.4 1026.5 0.0
30/07:30am 10.7 8.5 9.3 91 0.7 N 11 17 6 9 1026.1 1026.2 0.0
30/07:00am 10.9 9.2 9.7 92 0.6 N 9 17 5 9 1026.0 1026.1 0.0
30/06:30am 11.0 8.9 9.8 92 0.6 NE 11 13 6 7 1025.7 1025.8 0.0
30/06:00am 11.1 9.4 9.9 92 0.6 N 9 13 5 7 1025.5 1025.6 0.0
30/05:30am 11.3 10.0 10.0 92 0.7 NNE 7 9 4 5 1025.5 1025.6 0.0
30/05:00am 11.3 9.7 10.2 93 0.6 N 9 13 5 7 1025.4 1025.5 0.0

Latest Capital City Observations: Canberra | Sydney | Melbourne | Brisbane | Adelaide | Perth | Hobart | Darwin

Other Formats:

Comma delimited format used in spreadsheet applications
http://www.bom.gov.au/fwo/IDV60901/IDV60901.94870.axf

JavaScript Object Notation format (JSON) in row-major order
http://www.bom.gov.au/fwo/IDV60901/IDV60901.94870.json